Regional Weather Roundup
Issued by NWS

Home | Current Version | Previous Version | Text Only | Print | Product List | Glossary On
Versions: 1 2 3 4 5 6 7 8 9 10 11 12 13 14 15 16 17 18 19 20 21 22 23 24 25 26 27 28 29 30 31 32 33 34 35 36 37 38 39 40 41 42 43 44 45 46 47 48 49 50
000
ASUS43 KLMK 280110
RWRKY
KENTUCKY REGIONAL WEATHER ROUNDUP
NATIONAL WEATHER SERVICE LOUISVILLE KY
900 PM EDT WED MAY 27 2015

NOTE "FAIR" INDICATES FEW OR NO CLOUDS BELOW 12,000 FEET
WITH NO SIGNIFICANT WEATHER AND/OR OBSTRUCTIONS TO VISIBILITY.

KYZ001>023-026-027-061>063-070>075-280200-
WESTERN AND SOUTH CENTRAL KENTUCKY

CITY           SKY/WX    TMP DP  RH WIND       PRES   REMARKS
PADUCAH        CLOUDY    73  66  78 S3        30.09S
HENDERSON      CLOUDY    72  63  73 S7        30.08S
OWENSBORO      CLOUDY    71  67  87 S7        30.12R
HOPKINSVILLE   CLOUDY    71  67  85 S5        30.14R
BOWLING GREEN  CLOUDY    72  65  78 SE5       30.15R
GLASGOW        MOCLDY    68  67  99 CALM      30.16S
$$

KYZ024-025-028>034-038-045-046-053-280200-
NORTH CENTRAL KENTUCKY

CITY           SKY/WX    TMP DP  RH WIND       PRES   REMARKS
LOUISVILLE/SDF CLOUDY    70  63  78 S10       30.12F
LOUISVILLE/LOU CLOUDY    70  63  78 S5        30.13S
FORT KNOX      CLOUDY    66  63  88 SE5       30.12F
$$

KYZ035>037-039>044-047>052-055>060-089>105-280200-
NORTHEAST KENTUCKY

CITY           SKY/WX    TMP DP  RH WIND       PRES   REMARKS
LEXINGTON      CLOUDY    64  62  93 SW5       30.16R
COVINGTON      CLOUDY    69  60  73 S13       30.12R
FRANKFORT      CLOUDY    66  63  90 S7        30.15R
$$

KYZ054-064>069-076>088-106>120-280200-
SOUTHEAST KENTUCKY

CITY           SKY/WX    TMP DP  RH WIND       PRES   REMARKS
JACKSON        CLOUDY    70  62  76 CALM      30.17F
LONDON         CLOUDY    66  57  72 S5        30.17F
SOMERSET       CLOUDY    63  63 100 CALM      30.18F
MIDDLESBORO    HVY RAIN  66  65  97 NW5       30.21R
MONTICELLO     CLOUDY    65  65 100 SE5       30.21R
$$




USA.gov is the U.S. government's official web portal to all federal, state and local government web resources and services.